Lid_Strength_Index
0 0 0 0 0 0 1 0 -0 -0 -1 -0 -0 -0 -0 0 0 -0 0 1 1 1
0 1 1 0 -0 0 0 0 -0 -0 -1 -0 -0 -0 -0 0 0 0 0 1 1 1
0 0 0 0 0 0 -0 -0 -0 -0 -0 -0 -0 -0 -0 0 0 0 0 1 1 1
1 0 0 0 0 0 -0 -0 0 -0 -0 -0 0 0 0 0 0 1 1 1 1 1
1 0 1 0 0 -0 0 -0 0 -0 0 0 0 0 1 1 1 1 2 1 1 1
1 1 1 1 0 0 0 -0 0 0 1 1 0 0 0 1 1 1 1 1 1 1
1 1 1 0 0 0 0 0 0 0 0 0 0 0 0 0 1 1 1 1 1 1
1 1 0 1 0 0 0 0 0 0 0 0 0 0 0 0 1 1 1 1 1 0
1 1 1 1 0 0 0 0 0 0 0 0 0 7 4 1 1 1 1 1 1 1
1 1 1 1 1 1 1 0 1 1 0 1 0 8 7 4 0 1 1 1 1 1
1 1 1 1 1 1 1 1 1 1 0 0 0 9 8 6 0 1 1 0 0 1
1 1 1 1 1 1 1 1 1 0 1 1 1 9 9 3 1 1 1 0 0 0
1 1 1 1 1 1 1 1 1 1 0 3 1 10 9 3 1 1 1 1 0 6
1 1 1 1 1 1 1 1 1 1 1 0 1 3 10 6 1 1 1 1 1 0